Miami, FL

11:46 AM EST on January 20, 2017 (GMT -0500)
Kendall-Tamiami Executive

Weather History for KTMB - March, 2014

Change the Weather History Date:

Sunday, March 9, 2014

  Actual Average Record
Temperature  
Mean Temperature 68 °F -  
Max Temperature 80 °F 80 °F 89 °F (2003)
Min Temperature 55 °F 60 °F 46 °F (2001)
Cooling Degree Days 2    
Growing Degree Days 18 (Base 50)    
Moisture  
Dew Point 57 °F    
Average Humidity 84    
Maximum Humidity 100    
Minimum Humidity 50    
Precipitation  
Precipitation 0.00 in - - ()
Sea Level Pressure  
Sea Level Pressure 30.13 in    
Wind  
Wind Speed 3 mph (North)    
Max Wind Speed 9 mph    
Max Gust Speed -    
Visibility 5 miles    
Events Fog    
Averages and records for this station are not official NWS values.
T = Trace of Precipitation, MM = Missing Value Source: NWS Daily Summary

Daily Weather History Graph

Daily Weather History Graph

Search for Another Location

Airport or City:

Trip Planner

Search our weather history database for the weather conditions in past years. The results will help you decide how hot, cold, wet, or windy it might be!

Date:

Astronomy

Mar. 09, 2014 Rise Set
Actual Time 7:37 AM EDT 7:27 PM EDT
Civil Twilight 7:14 AM EDT 7:50 PM EDT
Nautical Twilight 6:47 AM EDT 8:17 PM EDT
Astronomical Twilight 6:20 AM EDT 8:43 PM EDT
Moon 1:43 PM EDT (3/9) 3:37 AM EDT (3/9)
Length of Visible Light 12h 36m
Length of Day
11h 50m
First Quarter, 61% of the Moon is Illuminated
Mar 9
First Quarter
Mar 16
Full
Mar 23
Last Quarter
Mar 30
New
Apr 7
First Quarter

Hourly Weather History & Observations

Time (EDT) Temp. Heat Index Dew Point Humidity Pressure Visibility Wind Dir Wind Speed Gust Speed Precip Events Conditions
12:53 AM 55.9 °F - 53.1 °F 90% 30.13 in 3.0 mi West 3.5 mph - N/A   Clear
1:53 AM 57.0 °F - 54.0 °F 89% 30.12 in 3.0 mi Calm Calm - N/A   Clear
3:30 AM 57.0 °F - 55.0 °F 93% 30.12 in 2.5 mi NW 3.5 mph - N/A   Clear
3:37 AM 55.9 °F - 55.0 °F 97% 30.12 in 0.8 mi NW 3.5 mph - N/A   Clear
3:53 AM 55.9 °F - 54.0 °F 93% 30.12 in 0.2 mi NW 3.5 mph - N/A Fog Fog
4:00 AM 55.9 °F - 55.0 °F 97% 30.12 in 1.0 mi NNW 4.6 mph - N/A   Clear
4:09 AM 57.9 °F - 55.9 °F 93% 30.12 in 2.0 mi NNW 3.5 mph - N/A   Clear
4:21 AM 59.0 °F - 57.0 °F 93% 30.12 in 4.0 mi Calm Calm - N/A   Clear
4:53 AM 59.0 °F - 57.0 °F 93% 30.11 in 6.0 mi WNW 4.6 mph - N/A   Clear
5:15 AM 57.9 °F - 57.0 °F 97% 30.10 in 1.8 mi Calm Calm - N/A   Clear
5:29 AM 59.0 °F - 57.0 °F 93% 30.11 in 2.5 mi Calm Calm - N/A   Clear
5:36 AM 57.9 °F - 57.0 °F 97% 30.10 in 3.0 mi Calm Calm - N/A   Clear
5:41 AM 57.9 °F - 57.0 °F 97% 30.11 in 1.8 mi Calm Calm - N/A   Clear
5:51 AM 57.2 °F - 57.2 °F 100% 30.11 in 3.0 mi Calm Calm - N/A   Clear
5:53 AM 57.9 °F - 57.0 °F 97% 30.11 in 3.0 mi Calm Calm - N/A   Clear
6:00 AM 57.0 °F - 55.9 °F 96% 30.12 in 1.8 mi Calm Calm - N/A   Clear
6:12 AM 57.0 °F - 55.9 °F 96% 30.12 in 0.8 mi NNW 3.5 mph - N/A   Clear
6:18 AM 57.0 °F - 55.0 °F 93% 30.12 in 2.5 mi NNW 3.5 mph - N/A   Clear
6:25 AM 55.9 °F - 54.0 °F 93% 30.13 in 3.0 mi Calm Calm - N/A   Clear
6:27 AM 55.9 °F - 54.0 °F 93% 30.13 in 1.5 mi Calm Calm - N/A   Clear
6:45 AM 57.9 °F - 55.9 °F 93% 30.13 in 0.8 mi NNW 3.5 mph - N/A   Clear
6:53 AM 57.0 °F - 55.9 °F 96% 30.13 in 1.2 mi North 3.5 mph - N/A   Clear
6:58 AM 57.0 °F - 55.9 °F 96% 30.13 in 3.0 mi Calm Calm - N/A   Clear
7:09 AM 59.0 °F - 57.0 °F 93% 30.13 in 1.8 mi Calm Calm - N/A   Clear
7:21 AM 59.0 °F - 57.9 °F 96% 30.14 in 6.0 mi Calm Calm - N/A   Partly Cloudy
7:43 AM 59.0 °F - 57.9 °F 96% 30.15 in 6.0 mi Calm Calm - N/A   Mostly Cloudy
7:53 AM 57.9 °F - 55.9 °F 93% 30.15 in 6.0 mi NW 3.5 mph - N/A   Mostly Cloudy
8:00 AM 57.0 °F - 55.0 °F 93% 30.15 in 0.2 mi NW 3.5 mph - N/A Fog Fog
8:11 AM 57.9 °F - 55.9 °F 93% 30.16 in 1.0 mi NW 3.5 mph - N/A   Mist
8:13 AM 57.9 °F - 55.9 °F 93% 30.16 in 2.0 mi NW 3.5 mph - N/A   Scattered Clouds
8:21 AM 59.0 °F - 57.0 °F 93% 30.16 in 5.0 mi NW 3.5 mph - N/A   Partly Cloudy
8:53 AM 64.0 °F - 62.1 °F 93% 30.16 in 10.0 mi North 3.5 mph - N/A   Clear
9:53 AM 70.0 °F - 59.0 °F 68% 30.18 in 10.0 mi North 6.9 mph - N/A   Clear
10:53 AM 73.9 °F - 59.0 °F 59% 30.18 in 10.0 mi NNW 6.9 mph - N/A   Clear
11:53 AM 75.0 °F - 59.0 °F 57% 30.18 in 10.0 mi Calm Calm - N/A   Scattered Clouds
12:53 PM 78.1 °F - 59.0 °F 52% 30.16 in 10.0 mi SE 4.6 mph - N/A   Scattered Clouds
1:53 PM 79.0 °F - 59.0 °F 50% 30.14 in 10.0 mi ESE 6.9 mph - N/A   Clear
2:53 PM 79.0 °F - 59.0 °F 50% 30.12 in 10.0 mi East 9.2 mph - N/A   Mostly Cloudy
3:53 PM 80.1 °F 80.9 °F 60.1 °F 50% 30.10 in 10.0 mi Variable 6.9 mph - N/A   Unknown
4:53 PM 77.0 °F - 60.1 °F 56% 30.09 in 10.0 mi ESE 6.9 mph - N/A   Scattered Clouds
5:53 PM 77.0 °F - 60.1 °F 56% 30.09 in 10.0 mi ESE 8.1 mph - N/A   Partly Cloudy
6:53 PM 73.9 °F - 59.0 °F 59% 30.09 in 10.0 mi ESE 6.9 mph - N/A   Clear
7:53 PM 71.1 °F - 59.0 °F 66% 30.11 in 10.0 mi ESE 6.9 mph - N/A   Clear
8:53 PM 68.0 °F - 59.0 °F 73% 30.12 in 10.0 mi East 5.8 mph - N/A   Clear
9:53 PM 71.1 °F - 60.1 °F 68% 30.14 in 10.0 mi ESE 3.5 mph - N/A   Clear
10:53 PM 66.0 °F - 59.0 °F 78% 30.15 in 10.0 mi Calm Calm - N/A   Partly Cloudy
11:53 PM 66.9 °F - 60.1 °F 79% 30.14 in 10.0 mi Calm Calm - N/A   Mostly Cloudy
12:53 AM 62.1 °F - 59.0 °F 90% 30.13 in 6.0 mi Calm Calm - N/A   Clear